Location: Newark
(48.9320°N, 2.2664°E)
Time: 10:45:02
(UTC+00:00)

Envisat - Visible Passes

Search period start: 28 January 2020 00:00
Search period end: 07 February 2020 00:00
Orbit: 764 x 766 km, 98.1° (Epoch: 28 January)

Date Brightness Start Highest point End Pass type
(mag) Time Alt. Az. Time Alt. Az. Time Alt. Az.
28 Jan 4.6 06:01:15 10° NNE 06:06:00 38° E 06:10:42 10° SSE visible
28 Jan 3.0 17:19:34 10° SSE 17:24:37 73° ENE 17:29:43 10° N visible
28 Jan 5.9 19:00:56 10° SW 19:04:12 17° W 19:07:30 10° NW visible
29 Jan 5.8 05:25:17 10° NE 05:28:52 19° E 05:32:27 10° SE visible
29 Jan 4.8 18:22:28 10° SSW 18:27:03 34° W 18:31:41 10° NNW visible
30 Jan 3.6 06:26:32 10° NNE 06:31:36 63° ESE 06:36:38 10° S visible
30 Jan 3.4 17:45:03 10° S 17:50:06 69° WSW 17:55:12 10° NNW visible
31 Jan 5.1 05:50:07 10° NNE 05:54:38 31° E 05:59:06 10° SSE visible
31 Jan 3.1 17:08:22 10° SSE 17:13:21 60° ENE 17:18:22 10° N visible
31 Jan 5.6 18:48:58 10° SW 18:52:47 21° W 18:56:37 10° NW visible
01 Feb 6.1 05:14:28 10° NE 05:17:27 15° E 05:20:24 10° ESE visible
01 Feb 4.4 18:10:54 10° SSW 18:15:41 42° W 18:20:31 10° NNW visible
02 Feb 4.1 06:15:18 10° NNE 06:20:16 51° E 06:25:12 10° S visible
02 Feb 3.1 17:33:43 10° SSE 17:38:48 85° WSW 17:43:55 10° NNW visible
02 Feb 6.3 19:16:27 10° WSW 19:18:36 13° W 19:20:47 10° WNW visible
03 Feb 5.4 05:39:02 10° NE 05:43:14 25° E 05:47:24 10° SSE visible
03 Feb 5.3 18:37:11 10° SSW 18:41:22 26° W 18:45:36 10° NW visible
04 Feb 6.3 05:03:56 10° ENE 05:05:59 12° E 05:08:02 10° ESE visible
04 Feb 3.2 06:40:41 10° NNE 06:45:49 83° ESE 06:50:55 10° SSW visible
04 Feb 4.0 17:59:23 10° S 18:04:20 52° W 18:09:19 10° NNW visible
05 Feb 4.5 06:04:06 10° NNE 06:08:55 41° E 06:13:42 10° SSE visible
05 Feb 3.0 17:22:26 10° SSE 17:27:30 79° ENE 17:32:37 10° NNW visible
05 Feb 6.1 19:04:07 10° SW 19:07:09 16° W 19:10:12 10° NW visible
06 Feb 5.8 05:28:02 10° NE 05:31:50 21° E 05:35:35 10° SE visible
06 Feb 5.0 18:25:29 10° SSW 18:29:59 31° W 18:34:31 10° NNW visible
